Whitefield, NH

10:28 AM EDT on April 30, 2017 (GMT -0400)
Mount Washington Regional

Weather History for KHIE - December, 2011

Change the Weather History Date:

Wednesday, December 28, 2011

  Actual Average Record
Temperature  
Mean Temperature 30 °F -  
Max Temperature 45 °F 26 °F 54 °F (2008)
Min Temperature 12 °F 6 °F -9 °F (1999)
Degree Days  
Heating Degree Days 36    
Moisture  
Dew Point 27 °F    
Average Humidity 81    
Maximum Humidity 100    
Minimum Humidity 62    
Precipitation  
Precipitation 0.11 in - - ()
Sea Level Pressure  
Sea Level Pressure 29.30 in    
Wind  
Wind Speed 7 mph (West)    
Max Wind Speed 16 mph    
Max Gust Speed 30 mph    
Visibility 8 miles    
Events Rain , Snow    
Averages and records for this station are not official NWS values.
T = Trace of Precipitation, MM = Missing Value Source: NWS Daily Summary

Daily Weather History Graph

Daily Weather History Graph

Search for Another Location

Airport or City:

Trip Planner

Search our weather history database for the weather conditions in past years. The results will help you decide how hot, cold, wet, or windy it might be!

Date:

Astronomy

Dec. 28, 2011 Rise Set
Actual Time 7:21 AM EST 4:13 PM EST
Civil Twilight 6:48 AM EST 4:47 PM EST
Nautical Twilight 6:11 AM EST 5:23 PM EST
Astronomical Twilight 5:36 AM EST 5:59 PM EST
Moon 9:36 AM EST (12/28) 8:57 PM EST (12/28)
Length of Visible Light 9h 58m
Length of Day
8h 52m
Waxing Crescent, 18% of the Moon is Illuminated
Dec 28
Waxing Crescent
Jan 1
First Quarter
Jan 9
Full
Jan 16
Last Quarter
Jan 23
New

Hourly Weather History & Observations

Time (EST) Temp. Windchill Dew Point Humidity Pressure Visibility Wind Dir Wind Speed Gust Speed Precip Events Conditions
12:52 AM 45.0 °F 40.6 °F 41.0 °F 86% 29.22 in 6.0 mi South 8.1 mph 17.3 mph 0.04 in Rain Light Rain
1:47 AM 44.6 °F 43.1 °F 42.8 °F 93% 29.20 in 4.0 mi ESE 3.5 mph - 0.06 in Rain Light Rain
1:52 AM 44.1 °F 41.5 °F 43.0 °F 96% 29.22 in 5.0 mi ESE 4.6 mph - 0.06 in Rain Light Rain
2:00 AM 44.6 °F 42.2 °F 42.8 °F 93% 29.19 in 10.0 mi ESE 4.6 mph - 0.00 in Rain Light Rain
3:28 AM 35.6 °F - 35.6 °F 100% 29.18 in 1.8 mi Calm Calm - N/A   Overcast
3:41 AM 39.2 °F 37.0 °F 39.2 °F 100% 29.18 in 3.0 mi WNW 3.5 mph - N/A   Overcast
3:52 AM 44.1 °F 39.5 °F 42.1 °F 93% 29.21 in 8.0 mi WSW 8.1 mph 17.3 mph N/A   Overcast
4:11 AM 44.6 °F 39.7 °F 42.8 °F 93% 29.18 in 10.0 mi WSW 9.2 mph - 0.00 in   Overcast
4:40 AM 44.6 °F 40.7 °F 41.0 °F 87% 29.18 in 10.0 mi WSW 6.9 mph - 0.00 in   Overcast
4:52 AM 44.1 °F 39.5 °F 39.9 °F 85% 29.20 in 10.0 mi WSW 8.1 mph - 0.00 in   Overcast
5:52 AM 43.0 °F - 37.9 °F 82% 29.22 in 10.0 mi Calm Calm - N/A   Overcast
6:28 AM 39.2 °F - 37.4 °F 93% 29.20 in 10.0 mi Calm Calm - N/A   Overcast
6:52 AM 39.9 °F - 36.0 °F 86% 29.23 in 10.0 mi Calm Calm - N/A   Overcast
7:52 AM 39.0 °F 35.7 °F 35.1 °F 86% 29.24 in 10.0 mi SW 4.6 mph - N/A   Overcast
7:59 AM 39.2 °F 35.0 °F 35.6 °F 87% 29.21 in 10.0 mi SW 5.8 mph - N/A   Overcast
8:52 AM 39.0 °F 32.8 °F 33.1 °F 79% 29.24 in 10.0 mi SW 9.2 mph - N/A   Overcast
9:52 AM 37.9 °F 32.7 °F 33.1 °F 83% 29.25 in 10.0 mi Variable 6.9 mph - N/A   Overcast
10:15 AM 37.4 °F 32.1 °F 32.0 °F 81% 29.22 in 10.0 mi SW 6.9 mph - N/A   Overcast
10:52 AM 37.9 °F 33.5 °F 32.0 °F 79% 29.23 in 10.0 mi WSW 5.8 mph - N/A   Overcast
11:20 AM 37.4 °F 30.8 °F 32.0 °F 81% 29.20 in 10.0 mi West 9.2 mph 16.1 mph 0.00 in   Overcast
11:35 AM 35.6 °F 29.2 °F 32.0 °F 87% 29.20 in 3.0 mi West 8.1 mph 18.4 mph 0.00 in Snow Light Snow
11:47 AM 35.6 °F 29.2 °F 32.0 °F 87% 29.21 in 9.0 mi WSW 8.1 mph - 0.00 in   Overcast
11:52 AM 36.0 °F 29.0 °F 32.0 °F 86% 29.24 in 10.0 mi West 9.2 mph - 0.00 in   Overcast
12:52 PM 35.1 °F 27.9 °F 28.9 °F 78% 29.24 in 10.0 mi West 9.2 mph - N/A   Overcast
1:29 PM 33.8 °F 29.6 °F 28.4 °F 81% 29.23 in 9.0 mi WSW 4.6 mph - 0.00 in Snow Light Snow
1:52 PM 34.0 °F 24.6 °F 28.0 °F 79% 29.27 in 2.5 mi WNW 13.8 mph 20.7 mph 0.00 in Snow Light Snow
2:01 PM 32.0 °F 22.1 °F 26.6 °F 80% 29.25 in 1.5 mi WNW 13.8 mph 20.7 mph 0.01 in Snow Light Snow
2:06 PM 32.0 °F 22.5 °F 26.6 °F 80% 29.26 in 3.0 mi WNW 12.7 mph 20.7 mph 0.01 in Snow Light Snow
2:52 PM 30.0 °F 19.5 °F 23.0 °F 75% 29.32 in 10.0 mi WNW 13.8 mph 23.0 mph 0.01 in   Overcast
3:52 PM 25.0 °F 12.6 °F 18.0 °F 75% 29.37 in 4.0 mi WNW 15.0 mph 20.7 mph 0.00 in Snow Light Snow
4:52 PM 21.9 °F 8.2 °F 14.0 °F 72% 29.42 in 9.0 mi WNW 16.1 mph 29.9 mph 0.00 in Snow Light Snow
5:52 PM 18.0 °F 4.8 °F 9.0 °F 68% 29.47 in 9.0 mi WNW 12.7 mph 25.3 mph 0.00 in Snow Light Snow
6:52 PM 16.0 °F 2.3 °F 7.0 °F 68% 29.53 in 10.0 mi West 12.7 mph 20.7 mph N/A   Overcast
7:52 PM 15.1 °F 0.5 °F 6.1 °F 68% 29.55 in 10.0 mi West 13.8 mph 26.5 mph N/A   Overcast
8:52 PM 15.1 °F 2.5 °F 6.1 °F 68% 29.57 in 10.0 mi West 10.4 mph 19.6 mph N/A   Overcast
9:14 PM 15.8 °F 0.3 °F 5.0 °F 62% 29.53 in 10.0 mi West 16.1 mph 25.3 mph N/A   Overcast
9:31 PM 15.8 °F 2.7 °F 5.0 °F 62% 29.52 in 10.0 mi WSW 11.5 mph 25.3 mph N/A   Overcast
9:52 PM 15.1 °F 4.2 °F 5.0 °F 64% 29.57 in 10.0 mi WSW 8.1 mph - N/A   Overcast
10:52 PM 14.0 °F -0.8 °F 5.0 °F 67% 29.60 in 10.0 mi West 13.8 mph 21.9 mph N/A   Overcast
11:52 PM 12.9 °F -2.8 °F 3.9 °F 67% 29.62 in 10.0 mi West 15.0 mph 24.2 mph N/A   Overcast